Theta_e
307 306 306 306 306 307 307 306 306 306 306 306 307 307 306 306 306 306 306 305 305 305 305 304 304 303 302 302 302 302 301 300 299 298 296 295 294 293 293 293 293 294 294 294 294 294 294 294 294 294 294 294 294 293 292 291 290 290 289 289 289 289 289 289 289 290 290 290 290 290 290 290 290 290 290 290 290 290 289 289 288 288 288 288 288
305 305 305 304 304 305 305 306 306 306 306 306 306 307 307 307 306 306 306 305 305 305 304 304 304 303 302 302 302 302 301 301 300 299 298 296 294 294 293 293 293 293 293 294 294 294 294 294 294 294 294 294 294 293 292 291 290 290 289 289 289 288 288 288 288 289 290 289 289 289 289 289 289 289 290 290 289 289 289 288 288 288 287 288 288
304 305 306 306 305 304 303 304 304 305 306 306 307 307 307 307 307 307 307 307 306 305 305 304 304 303 303 302 302 302 302 301 300 299 298 297 296 295 294 293 293 293 293 293 294 294 294 294 294 294 294 294 293 293 292 291 291 290 289 289 288 288 288 288 288 288 288 289 288 288 288 288 288 288 288 288 288 288 287 287 287 287 287 287 287
304 305 306 307 307 306 305 304 303 303 304 305 307 308 308 307 307 307 307 307 307 306 306 305 304 304 303 303 302 302 302 301 300 300 299 298 297 296 294 293 293 293 293 293 293 294 294 294 294 294 293 293 293 293 292 292 290 289 289 288 288 288 287 287 287 287 287 288 288 287 287 287 287 287 287 287 287 287 286 286 286 286 287 287 287
304 304 304 305 306 306 307 306 305 304 304 304 305 306 306 306 306 306 306 307 307 306 306 307 306 305 304 304 304 303 302 301 301 300 299 298 297 296 295 294 293 292 293 293 293 293 293 293 293 293 293 293 293 293 292 291 290 289 289 288 288 288 287 287 287 287 287 287 287 287 286 286 286 286 286 286 286 286 286 286 286 286 287 287 287
303 303 304 304 305 306 306 305 305 305 305 305 305 305 305 304 304 304 304 305 305 305 305 306 306 307 307 306 304 304 302 301 301 301 300 298 298 297 296 294 293 292 292 292 293 293 293 293 293 293 293 293 293 293 292 291 290 289 289 288 288 288 287 287 287 287 287 286 286 286 286 286 286 286 286 286 286 286 286 286 286 286 286 287 287
302 302 303 304 305 305 305 304 304 304 304 305 305 305 304 303 303 303 302 302 303 304 304 304 305 306 306 306 306 305 303 302 301 301 300 299 298 298 297 296 294 293 292 292 292 292 293 293 293 293 293 293 292 292 292 290 289 289 288 288 288 287 288 288 287 287 287 286 286 285 286 286 286 285 286 286 286 286 286 286 286 286 286 286 286
301 301 302 303 304 304 304 304 304 303 303 303 303 304 304 303 303 302 302 302 302 302 302 303 303 303 303 304 305 304 303 302 301 300 300 299 299 298 298 297 296 294 293 292 292 292 292 292 292 292 292 292 292 292 291 290 289 289 288 288 288 288 287 287 287 287 286 286 285 285 286 286 286 286 286 286 286 285 285 285 285 285 285 285 285
299 300 301 301 302 302 303 303 303 302 301 301 302 303 303 303 302 302 301 301 301 301 300 300 300 300 301 301 301 302 303 303 302 301 300 300 299 299 298 297 296 295 294 292 291 291 292 292 292 291 291 292 291 290 290 289 289 289 288 288 287 287 287 287 287 287 286 286 285 286 286 286 286 287 286 286 285 285 284 284 285 285 285 285 284
296 298 299 300 300 300 301 301 301 300 300 300 300 301 301 301 301 301 301 300 300 299 299 298 298 299 299 299 299 300 301 303 302 301 300 300 299 299 298 297 296 295 294 293 292 291 291 291 291 291 291 291 290 289 289 289 289 288 288 287 287 287 287 287 287 286 286 286 286 287 287 287 287 286 286 285 284 284 284 284 284 284 285 285 284
294 296 297 299 300 300 300 300 299 299 298 298 298 299 299 300 300 300 300 299 299 298 298 298 298 298 297 297 298 299 300 301 301 300 299 298 298 298 297 296 295 295 294 293 292 291 291 291 291 291 291 291 290 289 289 288 288 288 287 287 287 287 287 287 287 286 286 286 287 287 287 287 286 285 285 284 283 283 283 283 283 283 283 282 282
294 294 295 297 298 299 299 299 298 298 297 297 297 297 298 298 298 298 298 298 298 297 297 297 297 296 296 296 297 297 298 298 298 298 297 296 296 296 296 296 295 295 294 293 292 291 290 291 291 291 291 290 289 289 289 288 288 287 287 287 287 287 287 287 286 286 287 288 288 287 287 286 285 284 284 283 283 283 282 282 282 282 281 279 279
293 293 294 295 296 297 297 298 298 297 296 296 296 296 296 296 297 297 297 297 297 297 296 296 295 295 295 295 295 296 296 296 296 296 296 296 295 295 295 295 295 294 294 293 292 291 290 290 290 290 290 290 289 289 288 288 287 287 287 286 286 286 286 286 286 287 288 288 288 287 286 285 285 284 283 282 282 282 282 281 281 280 279 278 278
292 293 293 294 295 295 296 296 297 297 296 295 295 294 295 295 295 295 296 296 296 296 295 295 295 295 295 294 294 294 295 295 295 295 295 295 295 295 294 294 294 294 294 293 292 290 289 290 290 290 290 289 289 288 288 287 287 287 286 286 286 286 286 286 287 287 288 287 286 285 285 284 284 283 282 281 281 281 280 279 279 279 278 278 278
291 292 293 293 294 294 295 295 295 295 296 295 295 294 294 294 294 294 295 295 295 295 295 295 295 295 294 294 294 294 295 295 294 294 294 294 294 294 293 293 293 293 293 292 291 290 289 289 290 290 289 289 289 288 288 287 287 286 286 286 286 286 285 286 287 287 286 285 285 284 284 284 283 282 281 280 280 280 279 279 279 278 278 278 279
291 291 292 292 293 293 294 294 294 294 295 295 295 294 293 293 293 293 293 294 294 294 294 294 294 294 294 294 294 294 294 294 294 293 293 293 293 292 292 292 292 292 292 291 290 289 289 289 289 289 288 288 288 287 287 286 286 286 286 286 285 285 286 286 286 285 285 284 284 284 284 283 282 281 280 279 279 279 279 279 279 278 278 279 280
290 290 291 292 292 292 293 293 294 294 294 294 295 295 293 292 292 292 292 293 293 293 293 293 293 293 293 293 294 294 294 294 293 293 292 292 292 292 292 292 292 291 291 291 290 289 288 288 288 288 288 287 287 286 286 286 285 285 285 285 285 285 286 286 285 285 284 284 284 284 283 282 281 280 279 279 279 279 279 280 279 278 278 279 280
288 289 289 290 291 291 292 292 293 293 294 294 294 295 294 293 292 291 291 291 292 292 292 292 292 292 292 293 293 293 293 293 292 292 292 292 292 292 292 291 291 291 291 290 290 289 288 287 287 287 287 287 286 285 285 285 285 285 285 285 285 286 286 286 285 285 284 284 283 283 282 281 280 280 279 279 279 279 279 279 279 278 278 278 278
287 288 288 289 289 290 291 291 292 293 293 294 294 294 294 294 292 291 290 291 291 291 291 291 291 291 292 292 292 292 292 292 292 292 292 291 291 291 291 291 291 290 290 290 289 288 287 286 287 287 287 286 285 285 285 285 285 285 284 285 285 286 286 285 285 284 284 283 283 282 281 281 280 279 279 279 279 279 279 278 278 278 278 278 278
286 286 287 287 288 289 290 290 291 292 292 293 293 293 294 294 293 292 290 290 290 290 290 290 290 291 291 291 291 291 291 291 291 291 291 291 291 291 291 291 291 290 290 289 288 287 286 286 286 287 286 286 285 284 285 285 285 284 284 285 285 286 285 285 284 284 283 283 282 281 281 280 280 279 280 280 279 279 278 278 278 278 277 277 277
286 286 286 286 287 288 288 289 290 290 291 292 293 293 293 294 293 292 291 290 289 289 289 289 289 290 290 290 290 291 291 290 290 290 290 290 290 290 290 290 290 291 290 289 288 287 286 286 287 287 286 286 285 284 284 285 285 284 284 285 285 285 284 284 284 283 283 282 281 281 280 280 279 280 280 279 279 278 278 278 277 277 277 277 277
285 285 285 286 286 287 287 288 288 289 290 291 292 293 293 293 293 293 291 290 289 289 289 289 289 289 289 289 289 290 290 290 289 289 289 289 288 289 289 290 290 291 290 289 288 287 287 287 288 287 286 285 284 284 283 284 284 284 284 285 284 283 283 284 284 283 282 281 281 280 280 279 279 279 279 279 278 278 277 277 277 276 276 276 276
285 285 285 285 286 286 286 287 287 288 289 290 291 292 293 293 293 293 292 291 290 289 288 288 288 288 288 288 289 289 289 289 289 288 288 288 288 288 288 289 290 289 289 288 288 288 287 287 287 287 286 284 283 283 283 282 282 283 284 284 282 282 283 284 283 282 281 281 280 280 279 279 279 279 279 278 278 277 277 277 276 276 276 276 276
285 285 285 285 285 285 286 286 286 287 288 288 289 291 292 293 293 293 293 292 290 290 289 288 288 288 288 288 288 288 288 288 288 288 288 287 287 287 287 288 288 288 287 287 287 288 287 287 287 286 284 283 283 283 282 282 282 282 283 282 281 282 284 283 282 281 281 280 280 279 279 279 279 279 278 278 277 277 277 276 276 276 275 276 275
284 284 285 285 285 285 285 285 286 286 287 287 288 289 291 292 293 293 293 293 291 290 290 288 288 288 288 288 288 288 288 288 288 287 287 286 286 286 286 287 287 286 286 286 286 286 286 286 286 284 283 283 282 282 281 281 282 281 281 281 282 283 283 282 281 281 280 279 279 279 278 278 278 278 277 277 277 276 276 276 276 276 275 275 275
282 283 284 284 284 285 285 285 285 286 286 287 287 288 289 291 292 293 293 293 293 291 291 290 289 288 288 288 288 287 287 287 287 287 287 286 286 286 285 285 285 285 285 285 285 284 284 284 285 284 282 281 281 281 281 281 281 280 281 282 282 282 281 281 280 280 280 279 279 278 278 278 278 277 277 277 276 276 275 275 275 276 275 275 275
282 282 283 284 284 284 285 285 285 285 286 286 287 287 288 289 291 292 293 293 293 293 292 291 290 290 289 289 288 288 287 287 287 287 286 285 285 285 285 285 284 285 285 284 283 283 282 283 283 282 281 280 280 281 281 280 280 281 282 282 281 281 280 280 280 279 279 278 278 278 278 277 277 276 276 276 276 275 275 275 275 275 275 275 275
281 282 283 283 283 284 284 284 285 285 285 285 286 287 287 287 289 291 292 293 293 293 293 292 292 291 290 289 289 289 288 288 288 288 287 286 284 284 285 284 284 284 285 284 283 282 282 281 281 280 279 279 280 280 280 279 280 281 281 280 280 279 279 279 279 279 278 278 278 277 277 277 276 276 276 275 275 275 275 275 275 275 275 274 275
279 281 282 282 282 283 282 283 283 283 283 284 285 286 286 286 287 289 291 292 292 293 292 292 292 292 291 290 290 290 290 290 291 290 288 286 285 284 285 284 284 284 284 284 284 283 281 280 279 279 278 279 279 280 279 279 279 280 279 279 279 279 278 278 278 278 278 278 277 277 277 276 276 275 275 275 275 275 275 275 275 274 274 274 274
277 278 279 280 281 281 280 280 281 280 280 282 283 284 285 285 285 286 288 290 291 291 291 291 292 291 290 290 290 290 290 290 290 289 287 286 284 284 284 284 284 283 283 284 283 282 281 280 279 279 279 279 280 280 280 279 279 279 279 279 278 278 278 278 277 277 277 277 277 276 276 276 275 275 275 275 275 275 275 274 274 274 274 274 274
273 275 276 276 277 277 277 277 278 278 278 279 280 281 283 284 284 285 286 287 289 290 290 290 290 290 290 290 289 289 289 288 288 287 286 285 283 283 284 284 284 283 282 283 282 282 281 281 280 280 280 280 280 280 280 280 279 279 279 278 278 277 277 277 277 277 277 276 276 276 276 275 275 275 275 275 275 274 274 274 273 273 273 273 273
268 271 273 272 272 272 272 273 274 275 276 277 277 278 280 281 282 284 284 285 287 288 289 289 288 288 288 288 288 287 287 287 287 286 286 284 283 283 283 284 283 283 282 282 282 282 282 281 281 280 280 280 280 280 280 280 279 279 279 278 278 277 276 276 276 276 276 276 276 276 275 275 275 275 274 274 274 274 273 273 273 273 273 273 273
265 268 269 269 268 269 270 271 271 272 274 274 275 276 277 278 279 281 282 283 284 286 287 287 286 286 286 286 287 286 285 285 285 285 285 285 284 282 282 283 283 282 281 281 281 282 282 280 280 280 280 280 280 280 280 279 279 279 278 278 277 277 276 276 276 276 276 276 275 275 275 275 274 274 274 274 273 273 273 272 273 273 273 273 273
264 265 266 266 266 267 268 269 270 271 272 273 274 275 276 277 278 279 280 281 282 283 285 285 285 284 283 284 284 284 284 284 283 283 284 284 284 283 282 282 282 282 281 281 281 282 281 280 280 280 280 280 280 280 279 279 279 278 277 276 276 275 275 275 275 275 275 275 275 275 274 274 274 274 273 273 273 273 272 272 272 272 272 272 272
263 264 264 265 266 267 268 269 269 270 270 272 273 275 276 277 278 278 279 280 281 282 283 284 284 284 283 282 282 282 282 282 282 282 282 283 283 283 282 282 282 281 280 280 280 281 281 281 281 280 280 280 280 280 279 279 278 277 276 276 275 275 275 275 275 275 275 275 275 274 274 274 274 273 273 273 272 272 272 272 272 272 271 271 270
263 263 263 264 265 266 267 267 267 268 269 271 272 274 276 277 278 279 279 280 280 281 282 282 283 283 283 282 282 281 281 281 280 281 281 282 282 282 282 282 282 281 279 279 280 281 281 282 281 281 280 280 280 279 279 278 277 276 275 275 275 275 275 275 275 275 275 275 274 274 274 274 273 273 272 272 272 271 272 272 272 271 270 270 269
263 263 263 264 264 265 266 267 267 268 269 271 273 274 275 277 278 279 279 280 280 280 281 281 281 281 282 282 281 281 281 280 280 280 280 281 281 282 282 282 281 280 279 278 279 280 281 281 281 280 280 279 279 278 278 277 276 275 275 274 275 275 275 275 275 274 274 274 274 274 274 273 273 272 272 271 271 271 271 271 272 271 270 269 268
263 263 264 264 265 265 266 266 267 268 269 272 273 274 276 277 278 278 279 279 279 280 280 280 280 280 281 281 281 280 280 280 280 279 280 280 281 281 282 281 281 280 279 278 279 279 280 280 280 280 279 279 278 277 277 276 275 275 274 274 275 275 274 274 274 274 274 274 274 274 274 273 273 272 271 271 271 271 271 271 271 270 269 268 268
263 263 264 264 265 265 265 266 266 268 269 271 273 274 275 277 278 278 278 279 279 279 279 279 279 279 280 280 280 280 280 280 279 279 280 280 281 281 281 281 280 280 279 279 278 279 279 280 280 279 279 278 277 277 276 276 275 274 274 274 274 274 274 274 274 274 274 274 274 273 273 273 272 272 271 271 270 270 270 271 270 269 268 268 268
263 263 263 263 264 264 265 265 266 268 269 270 272 273 274 276 277 278 278 278 279 279 278 278 279 279 279 279 280 280 280 279 279 279 279 280 280 281 281 281 280 280 279 278 278 279 279 279 279 279 278 277 277 276 275 275 274 274 274 274 274 274 274 274 274 274 274 274 273 273 273 272 272 272 271 271 270 270 270 269 268 267 267 267 267
263 263 263 263 264 264 264 265 266 267 269 271 272 273 274 275 276 277 278 278 278 278 278 278 278 278 279 279 279 280 280 280 279 279 279 280 280 280 281 281 280 279 279 279 279 279 279 279 278 278 277 276 276 275 275 274 274 274 274 274 274 274 274 274 274 274 273 273 273 273 272 272 272 271 271 271 270 269 269 268 268 267 267 267 267
263 263 263 264 264 264 265 265 266 267 269 271 272 273 275 275 276 277 277 278 278 278 278 278 278 278 278 278 279 279 280 280 279 279 279 279 280 280 280 280 279 279 279 279 279 279 279 279 278 277 277 276 275 275 274 274 274 274 274 274 274 274 274 274 273 273 273 273 273 273 272 272 272 271 271 270 269 269 268 268 267 267 267 267 267
263 263 264 264 265 265 265 266 267 268 269 270 271 273 274 275 276 276 277 277 277 277 277 277 277 277 278 278 278 279 279 279 279 279 279 279 280 280 280 279 279 279 279 279 279 279 279 278 277 276 276 275 275 274 274 274 274 274 274 274 274 274 273 273 273 273 273 273 273 272 272 272 271 271 270 269 269 268 268 267 267 267 267 267 267
264 264 265 265 265 266 266 266 267 268 269 270 271 272 273 274 275 276 276 276 276 276 276 276 277 277 277 278 278 279 279 279 278 279 279 279 279 280 279 279 279 279 279 279 278 278 277 277 276 276 275 274 274 273 273 273 273 273 273 273 274 274 273 273 273 273 273 273 272 272 272 271 271 270 269 269 268 268 267 267 267 267 267 267 267
265 265 266 266 267 267 267 268 268 269 270 271 272 272 273 274 275 275 276 276 276 276 276 276 276 277 277 277 278 279 279 279 278 279 279 279 279 279 279 279 279 279 279 278 277 277 276 276 275 275 274 273 273 273 273 273 273 273 273 273 273 273 273 273 273 273 273 273 272 272 272 271 271 270 269 268 268 267 267 267 267 267 267 267 267
265 266 267 267 268 268 269 269 270 271 271 272 272 273 274 274 275 275 275 275 275 275 275 276 276 276 277 277 278 278 279 279 279 278 279 279 279 279 279 279 279 278 278 277 276 276 275 275 274 274 273 273 273 273 273 273 273 273 273 273 273 273 273 273 273 273 272 272 272 272 271 271 270 269 268 268 267 267 267 267 267 267 267 267 267
266 266 267 268 268 269 270 270 271 271 272 272 273 273 274 274 274 274 274 274 274 275 275 275 276 276 277 277 278 278 279 279 279 278 278 278 278 278 278 278 278 277 277 276 275 275 274 274 273 273 273 273 273 273 273 273 273 273 273 273 273 273 273 273 273 272 272 272 272 271 271 270 269 268 268 268 267 267 267 267 267 267 267 267 267
266 267 267 268 269 269 270 270 271 271 271 272 272 273 273 273 273 273 274 274 274 274 275 275 276 276 277 277 278 278 278 278 278 278 278 278 278 278 277 277 277 276 276 275 274 273 273 273 272 272 272 272 272 272 272 272 272 272 272 272 272 272 272 272 272 272 272 271 271 271 270 269 269 268 268 267 267 267 267 267 267 267 267 267 267
266 267 267 268 268 269 269 270 270 271 271 272 272 272 272 272 273 273 273 273 274 274 275 275 275 276 276 277 277 277 278 278 278 277 277 277 277 276 276 276 276 276 275 274 273 273 272 272 272 272 272 272 272 272 272 272 272 272 272 272 272 272 272 272 272 272 272 271 271 270 269 269 268 268 267 267 267 267 267 267 267 267 267 267 267
266 266 267 267 268 268 269 269 270 270 271 271 271 272 272 272 272 273 273 273 274 274 274 275 275 276 276 276 277 277 277 276 276 276 276 276 276 276 276 276 275 274 273 273 273 272 272 272 272 272 272 271 271 271 271 271 271 271 271 271 271 271 272 272 272 271 271 271 270 270 269 268 267 267 267 267 267 267 267 267 267 267 267 266 267
266 266 267 267 267 268 268 269 269 270 270 270 271 271 271 272 272 272 273 273 273 274 274 274 275 275 275 276 276 276 275 275 275 276 276 276 276 276 275 275 274 273 273 272 272 272 272 272 272 271 271 271 271 271 271 271 271 271 271 271 271 271 271 271 271 271 271 270 270 269 268 267 267 266 267 267 267 267 266 267 267 267 266 266 266
Wind_Speed
30 32 31 32 31 29 28 29 31 33 35 37 38 40 41 43 43 43 44 44 43 43 43 42 41 40 39 39 39 40 41 41 42 44 46 47 48 48 47 46 45 44 42 40 38 36 33 30 28 26 24 23 22 21 20 20 20 21 21 20 20 19 17 17 17 15 14 16 18 18 18 18 18 21 26 27 28 29 30 31 32 32 33 33 34
28 31 33 35 37 36 34 33 33 35 37 39 40 40 40 41 43 44 45 46 46 46 45 44 43 42 41 40 40 39 40 40 41 43 45 47 48 49 49 48 48 46 44 43 41 38 35 32 30 28 26 25 23 22 22 21 22 22 22 22 21 21 20 19 19 18 15 15 17 19 19 19 18 20 25 28 30 30 30 29 31 31 32 33 33
23 25 29 33 36 39 40 40 39 39 40 41 41 41 41 42 43 44 45 46 47 48 47 46 45 45 44 43 42 40 40 40 41 43 45 46 48 49 50 50 50 49 47 45 43 40 37 35 33 30 28 27 25 23 23 23 23 23 23 23 22 22 21 20 19 19 17 15 16 19 21 22 21 22 25 28 29 30 30 30 30 31 32 33 34
23 22 24 28 31 34 38 41 44 45 46 45 43 43 43 44 45 46 47 48 49 49 48 48 48 48 47 46 44 42 41 41 42 44 44 45 46 48 50 51 51 50 49 47 45 42 40 38 35 33 31 28 27 25 25 24 24 24 24 24 24 22 21 21 20 19 18 16 16 18 21 23 23 23 25 27 28 29 31 31 32 33 34 35 36
28 26 26 27 28 30 33 37 41 44 46 48 48 48 49 48 47 49 50 51 52 51 50 49 50 51 50 48 47 45 44 43 43 44 44 44 45 47 48 50 51 51 50 48 47 45 42 40 37 35 33 31 29 27 27 26 24 24 25 25 24 23 22 21 20 20 20 19 17 18 20 23 25 25 25 28 29 30 31 33 34 36 36 37 37
30 30 29 29 29 30 31 33 36 40 42 44 47 50 53 53 52 53 53 53 54 54 54 53 52 52 52 51 49 48 46 44 43 43 43 43 44 46 47 49 51 51 51 50 49 47 44 41 39 37 35 33 31 29 27 26 25 25 25 25 25 24 23 22 21 20 20 20 19 19 21 23 25 26 26 28 31 33 34 36 35 35 36 38 38
33 33 32 31 32 32 32 32 35 37 39 40 43 47 51 54 55 55 54 55 56 57 57 57 56 54 53 52 51 50 48 46 45 43 43 43 44 45 46 48 50 51 52 51 50 49 46 43 41 39 37 35 32 31 28 26 26 25 25 26 26 25 24 22 21 20 20 20 20 21 22 22 24 26 27 29 32 34 35 38 38 36 36 37 38
35 35 35 34 34 34 33 32 33 35 37 38 40 43 46 50 54 55 55 55 57 58 59 59 58 57 56 54 53 52 50 49 47 45 44 44 44 45 46 47 49 51 52 52 52 50 48 45 43 41 38 35 33 31 29 27 26 26 26 27 26 26 24 22 21 20 20 20 20 21 22 23 25 28 30 31 33 34 34 36 39 39 38 38 38
37 37 36 37 37 35 33 32 31 32 35 37 39 41 42 45 49 54 56 56 57 58 59 59 59 59 58 57 55 53 53 52 50 49 47 47 46 47 47 48 49 50 52 53 53 52 50 47 44 41 38 35 34 31 30 28 28 27 27 27 26 25 23 22 20 19 19 20 21 22 23 25 26 29 30 31 32 33 33 34 37 38 39 40 40
39 39 38 38 38 36 34 32 30 30 33 35 37 39 40 41 45 50 55 56 57 57 57 58 59 59 59 58 57 56 55 55 54 52 50 49 48 48 49 49 50 51 52 53 55 54 52 49 46 42 39 37 35 33 31 30 29 27 27 27 26 25 23 21 20 19 20 21 22 22 24 26 27 28 29 29 30 31 32 34 36 38 40 43 44
40 39 39 39 38 37 35 33 30 29 31 33 35 37 38 40 43 47 51 53 54 55 56 58 58 59 59 58 57 58 57 57 56 54 52 50 49 48 49 50 50 51 52 53 55 55 54 51 47 44 42 40 37 34 33 31 29 28 27 27 26 24 22 21 19 19 21 22 22 23 24 26 27 27 27 27 28 29 30 33 35 38 40 42 46
39 39 39 39 39 38 37 34 31 29 29 30 32 34 36 39 42 45 47 49 51 53 55 56 57 57 58 58 58 58 58 57 56 54 52 50 48 48 48 49 50 51 52 53 55 56 55 52 49 47 44 41 38 35 33 32 30 28 27 27 25 24 22 20 19 20 22 23 23 23 23 25 26 25 24 25 26 27 29 31 33 36 38 38 42
37 38 39 39 39 38 38 37 35 32 28 27 29 31 34 38 40 42 44 45 47 51 53 54 55 55 56 57 57 56 56 55 54 53 51 49 48 48 48 49 49 50 51 52 54 56 56 54 50 47 44 41 38 36 34 32 30 29 28 27 25 23 21 20 20 22 23 23 24 22 21 22 23 22 21 22 24 26 29 31 32 34 36 37 40
36 37 38 39 39 39 39 39 39 37 33 29 27 28 31 34 37 40 41 43 45 49 51 52 53 53 54 55 55 54 54 53 52 52 50 48 48 48 48 48 48 48 49 51 53 56 56 53 50 46 44 41 39 37 35 33 31 30 28 27 25 22 20 20 21 21 21 22 22 21 19 19 20 20 19 20 22 25 28 29 31 32 35 37 40
37 36 37 37 39 40 41 41 40 41 40 36 31 28 29 31 34 37 39 41 43 46 48 50 51 51 52 52 52 52 52 51 51 51 49 48 48 48 48 49 48 49 50 50 51 54 54 52 49 46 44 41 39 37 35 33 32 29 27 26 24 21 19 19 20 20 19 19 20 19 17 17 17 17 17 19 21 24 25 27 29 31 35 37 39
39 38 38 38 38 39 41 42 42 42 42 41 37 31 28 29 31 34 37 39 41 44 46 48 49 49 49 49 49 50 50 50 50 50 48 48 49 49 50 50 50 50 49 48 49 51 52 51 49 45 42 40 38 36 34 33 31 29 27 25 23 20 19 19 20 19 18 18 18 18 17 15 14 14 15 17 19 21 24 26 27 29 34 37 39
42 40 39 39 39 39 40 41 42 42 42 41 40 36 31 28 29 31 35 38 40 42 44 45 46 47 47 47 47 48 49 49 49 48 47 48 49 50 51 51 51 50 48 47 47 50 52 51 48 44 41 39 37 35 34 33 31 30 28 25 23 21 20 20 19 18 17 17 17 17 14 12 13 13 14 15 17 20 23 26 26 28 32 36 39
45 44 42 41 40 40 40 41 41 41 41 40 40 38 34 29 27 29 32 35 38 39 41 42 44 45 45 46 46 46 47 48 47 47 47 47 49 51 50 50 50 49 47 47 47 50 52 50 46 42 39 38 36 36 35 34 32 30 28 25 24 22 20 20 19 17 17 17 16 14 12 11 12 13 13 15 16 18 21 24 26 27 31 34 37
47 47 46 45 43 41 41 41 41 41 40 39 38 37 36 32 27 27 29 32 35 37 38 40 42 43 43 44 44 44 45 46 46 46 47 47 49 50 49 49 49 49 48 48 49 51 51 48 44 42 39 38 37 37 36 34 32 30 28 26 25 23 20 19 18 16 17 16 15 13 12 12 12 12 14 16 16 17 19 21 24 26 29 32 33
48 47 48 48 46 44 42 41 41 41 40 39 38 36 35 33 29 26 26 29 32 35 37 38 39 40 42 42 43 43 45 45 45 45 45 46 49 50 49 48 48 48 49 50 51 51 50 47 45 43 41 39 39 39 37 35 32 30 29 28 26 22 20 18 16 16 17 15 13 13 13 12 13 14 15 16 16 17 18 20 22 24 27 30 31
47 47 48 49 49 47 44 42 42 41 40 39 37 35 34 33 31 27 25 26 29 32 34 36 37 38 40 41 41 42 44 44 44 44 44 45 48 51 50 48 47 48 49 50 50 51 50 49 47 43 40 40 41 39 37 36 33 32 30 28 24 21 19 17 15 16 16 14 13 13 13 13 13 14 16 17 17 18 19 20 21 22 24 28 30
47 47 48 49 49 48 47 45 43 42 41 40 37 35 33 32 32 29 25 24 26 29 32 34 36 37 38 40 41 42 43 44 43 42 42 44 47 50 50 47 45 46 48 49 49 50 51 49 46 43 42 43 42 39 37 35 34 32 30 27 22 20 19 17 16 15 15 14 14 13 12 13 14 15 16 17 17 18 19 20 20 21 23 25 28
48 48 49 50 49 49 48 46 45 43 42 41 39 36 33 31 31 30 27 25 25 27 30 32 34 36 38 40 41 41 42 42 41 41 42 42 45 48 47 44 44 45 47 47 48 49 49 47 45 44 44 43 42 40 37 35 33 32 29 24 21 20 19 17 15 14 14 14 14 13 12 14 15 16 17 17 18 18 19 20 20 21 23 25 26
50 50 50 51 52 51 49 47 46 45 43 42 40 38 35 32 30 30 29 27 25 26 28 30 33 35 37 39 41 41 41 41 40 40 41 41 42 44 45 43 43 45 46 46 46 46 47 46 45 44 44 44 42 39 36 35 34 31 26 22 21 20 18 16 15 15 15 14 14 13 13 14 16 16 17 18 18 19 19 20 21 21 22 25 27
53 53 52 53 53 53 52 50 48 46 44 43 42 40 37 34 31 30 29 29 28 27 28 30 32 34 36 38 40 40 40 40 38 39 41 40 40 41 43 42 42 43 44 44 45 45 46 45 43 42 43 43 39 37 36 35 33 29 26 24 23 19 17 16 16 16 16 14 14 14 14 15 16 17 18 18 19 19 20 21 22 22 23 26 28
57 57 56 54 53 54 55 55 53 49 46 45 43 42 40 36 34 31 30 30 30 29 29 31 32 34 36 37 38 39 39 39 38 38 40 41 39 40 41 41 40 41 41 41 42 44 44 44 43 43 43 40 37 37 37 34 31 29 28 26 22 18 17 18 18 17 16 14 14 14 14 15 16 16 17 19 18 19 20 22 23 23 24 27 30
59 59 60 58 57 56 56 56 56 53 49 46 45 44 43 39 37 34 32 31 31 31 32 32 33 35 36 37 38 38 37 39 38 38 40 42 42 41 41 40 39 40 40 41 43 44 44 43 43 42 40 38 38 38 37 34 32 31 28 24 21 19 19 19 18 17 16 15 15 15 15 16 16 16 17 18 18 18 19 22 24 25 26 28 32
60 61 61 61 60 59 56 56 57 55 52 48 45 45 44 42 40 38 35 33 33 33 34 34 34 35 35 36 38 38 38 39 40 39 41 43 45 45 43 41 40 41 42 44 44 44 43 41 39 38 39 40 40 38 36 35 34 30 25 22 22 22 21 20 18 17 16 16 15 15 15 16 16 16 18 18 18 18 19 21 23 25 27 29 33
61 61 61 60 61 60 57 56 55 53 51 48 46 46 45 43 42 41 38 35 34 34 35 36 35 34 34 35 37 38 38 38 38 38 40 42 45 48 48 46 44 43 44 45 45 44 43 41 39 40 42 41 39 37 37 36 33 28 25 24 24 23 22 21 19 18 17 16 15 15 16 16 16 17 18 19 18 18 18 20 23 25 28 30 32
61 62 61 59 60 59 57 54 51 48 47 46 46 46 45 43 41 41 40 38 35 35 37 37 36 35 35 34 35 35 35 35 36 37 39 41 45 49 50 49 46 44 44 44 44 45 44 43 42 42 41 39 38 38 37 35 31 29 28 26 25 24 22 20 19 17 16 15 15 15 15 15 16 17 18 19 19 18 18 20 22 25 28 30 32
57 59 59 57 57 56 54 53 50 48 47 45 44 44 45 44 42 40 39 38 37 37 38 38 38 38 37 36 35 35 34 33 34 36 37 39 44 48 49 49 48 46 45 45 44 43 44 44 43 43 42 41 40 39 36 33 31 30 29 27 26 24 22 20 18 16 15 14 14 14 15 15 16 17 18 19 19 19 20 21 23 25 27 29 31
51 55 56 55 54 53 51 50 48 45 44 43 40 39 40 42 42 41 38 36 36 37 38 39 41 41 40 38 37 37 36 35 34 34 34 36 41 45 47 48 49 47 44 45 45 43 43 45 46 46 45 43 40 37 34 32 31 30 29 27 26 24 21 19 17 16 14 14 14 14 14 15 16 17 18 19 19 21 22 23 25 26 27 28 30
47 50 52 51 50 49 48 46 44 41 40 39 38 36 37 39 41 40 37 34 34 36 38 40 42 42 42 41 39 39 39 37 36 34 32 33 37 42 44 45 48 48 46 45 45 44 44 46 45 45 44 40 37 35 34 32 31 30 28 27 25 22 20 19 17 15 14 14 13 13 14 15 16 17 18 18 19 22 23 25 26 26 27 29 31
45 48 48 47 45 44 41 38 36 35 36 36 36 36 37 38 38 37 36 33 33 34 37 39 41 40 40 40 39 39 39 38 38 36 33 31 34 39 42 41 43 46 48 49 47 45 45 44 43 43 41 38 37 36 34 32 31 30 29 27 24 21 20 18 16 14 14 13 13 13 13 14 15 17 18 19 20 22 25 26 26 27 27 29 31
45 46 45 42 39 37 37 36 36 37 38 38 37 36 37 37 37 36 35 34 34 35 36 38 39 39 38 37 37 36 36 36 35 35 33 31 31 36 41 42 42 44 47 50 49 46 44 42 42 41 40 38 37 36 34 33 32 31 29 27 24 21 19 16 14 14 14 13 12 13 13 14 15 16 18 20 21 24 26 27 26 26 27 29 32
45 45 44 42 40 41 43 43 43 43 41 39 37 36 36 37 36 35 35 34 34 35 36 37 38 38 37 36 35 34 33 32 30 30 32 32 31 36 44 48 48 48 49 50 49 46 43 42 42 41 39 38 37 35 34 33 32 31 28 25 22 19 17 15 14 14 13 12 12 12 13 13 14 16 18 21 23 24 27 28 27 27 27 29 32
45 46 45 44 42 42 42 39 37 36 35 33 32 33 35 37 36 35 35 35 35 35 36 36 36 36 36 36 34 31 30 29 27 27 29 30 32 39 48 51 50 50 50 49 48 46 45 44 43 39 37 37 36 34 34 33 31 29 27 23 21 18 16 15 15 14 13 12 12 12 12 13 14 16 19 22 24 25 27 28 27 28 28 29 31
43 42 40 38 37 38 40 39 38 36 34 33 32 32 34 36 36 35 35 35 35 35 35 35 35 36 37 37 35 31 29 28 27 28 30 32 35 42 49 50 49 50 51 50 48 47 46 43 39 35 35 35 34 34 34 33 30 28 25 22 20 18 17 16 15 14 13 12 11 12 12 13 14 17 19 22 24 26 28 28 28 28 30 30 31
40 38 37 37 37 39 41 40 38 36 35 34 34 33 33 35 35 35 35 34 34 34 35 34 35 36 36 35 35 34 32 32 32 34 35 37 39 44 49 50 49 50 52 50 47 46 44 41 37 35 35 35 34 34 34 32 29 26 23 21 20 18 17 15 14 13 12 12 11 11 12 13 15 17 20 22 24 27 28 28 28 28 30 32 34
41 41 40 39 38 38 38 36 34 33 32 33 33 33 34 34 34 34 34 33 33 34 34 34 35 36 35 33 34 35 37 38 38 38 38 40 42 46 49 50 51 52 52 50 46 43 41 39 37 36 36 35 35 34 32 29 26 24 22 20 19 17 16 14 13 12 12 11 11 12 13 14 16 18 20 22 24 27 28 27 27 28 29 32 37
40 41 40 38 36 36 35 35 34 32 30 30 31 31 33 33 33 32 32 32 32 32 33 33 34 34 33 32 33 35 38 40 40 39 40 42 45 48 50 51 53 53 50 46 43 41 40 38 37 37 36 35 34 33 30 27 25 23 21 19 18 16 15 14 13 12 12 12 12 12 13 15 17 19 21 22 25 27 27 27 27 28 30 34 38
35 36 35 33 33 32 32 32 32 30 28 28 29 29 30 31 31 31 31 31 31 30 31 32 32 31 31 31 30 32 36 39 39 40 41 44 46 49 50 51 52 50 46 43 42 41 39 38 37 37 36 35 34 32 29 26 23 21 20 18 17 15 14 14 13 13 12 12 12 13 14 16 18 19 21 23 25 26 26 27 27 28 32 37 38
33 33 33 32 31 31 30 29 28 28 28 26 26 27 28 28 29 30 30 29 29 29 29 29 29 28 29 28 27 30 36 39 39 40 42 44 47 48 49 48 47 45 43 41 41 40 38 36 36 36 35 34 32 28 25 22 21 20 18 17 16 15 14 13 13 13 13 13 13 14 15 17 18 20 21 23 25 26 26 27 28 31 35 38 37
31 31 31 31 31 31 29 28 27 27 27 25 23 24 25 26 28 28 28 27 27 26 27 27 26 27 27 26 27 32 37 38 38 39 42 44 46 47 46 45 44 42 41 40 38 36 34 34 34 34 32 30 28 24 22 21 19 18 17 16 14 14 13 13 13 13 13 14 14 15 17 18 19 20 21 23 25 25 25 27 30 35 37 37 36
27 28 28 28 28 27 26 26 25 24 23 21 21 21 23 24 25 25 24 24 24 24 24 24 24 25 25 26 29 34 36 36 36 38 41 43 45 45 43 42 41 40 39 35 33 32 32 33 33 32 30 28 26 23 21 20 18 16 15 14 13 13 13 13 13 14 14 15 16 17 18 19 19 20 22 23 24 24 25 28 33 36 37 36 35
25 26 26 25 24 23 21 20 19 17 17 17 19 19 20 21 21 21 21 21 21 21 22 22 23 24 25 26 30 34 34 35 36 38 39 41 43 42 41 40 38 36 33 30 30 31 32 32 31 29 27 25 23 21 19 18 16 15 14 12 12 12 12 13 13 14 15 16 17 18 19 20 20 20 22 24 24 24 27 31 36 37 35 34 34
24 23 22 21 20 18 16 15 14 13 14 14 16 17 17 17 17 17 17 18 19 20 21 22 22 24 25 27 31 33 33 34 35 36 37 38 39 39 38 37 34 31 29 28 30 31 31 30 28 26 23 21 19 18 17 15 14 13 11 11 11 11 12 12 13 14 15 17 18 19 19 19 20 21 22 23 24 25 29 34 36 35 33 32 34
22 21 19 18 17 15 13 12 11 11 10 11 12 13 13 13 14 14 15 16 18 19 20 21 23 25 27 29 30 32 32 32 34 35 35 35 36 36 35 33 30 29 29 31 31 31 30 28 25 23 21 19 17 16 14 13 11 10 10 10 10 10 11 12 13 14 15 17 18 18 19 19 20 22 22 23 24 26 31 35 35 33 31 32 35
20 19 17 16 15 13 11 10 9 8 7 7 8 9 9 10 11 13 14 16 17 18 20 21 23 25 27 28 29 30 31 31 32 32 32 33 33 32 30 28 28 28 30 32 31 29 27 25 22 20 19 17 15 14 12 11 9 9 8 9 9 10 11 12 13 14 16 17 18 18 19 20 21 21 21 22 24 28 33 35 34 31 31 33 36
19 17 16 14 13 11 10 8 7 5 4 5 5 6 7 9 10 12 14 15 17 18 20 22 23 25 26 27 27 28 29 30 30 31 31 30 29 27 26 27 29 31 31 31 29 26 24 22 20 18 17 15 14 12 10 9 8 7 8 8 9 10 12 13 14 15 16 17 18 19 20 20 20 20 20 22 26 31 34 33 31 30 31 33 37
19 17 16 14 12 10 9 7 6 4 2 2 3 4 6 8 10 12 14 15 16 18 20 21 23 24 24 25 25 26 27 28 28 28 27 26 25 25 27 29 31 31 30 27 25 23 21 20 18 17 15 13 12 10 9 8 7 7 8 9 10 11 12 13 14 15 16 17 18 19 18 18 18 19 20 23 28 32 33 31 29 29 32 34 37
Wind_Direction
300 295 290 285 281 276 271 266 261 258 256 255 255 255 255 254 254 253 253 251 250 249 247 246 244 242 239 235 232 231 231 232 232 232 232 232 231 231 230 230 231 232 233 235 237 239 241 243 246 249 252 255 259 263 265 270 273 275 276 275 270 267 265 266 269 271 275 282 289 294 298 306 314 317 316 316 318 320 321 321 321 321 322 323 322
307 301 295 289 284 281 277 273 268 264 261 259 258 258 258 257 256 255 255 254 253 251 250 249 248 246 243 239 235 232 231 231 231 231 232 232 232 231 231 230 230 231 232 233 235 237 239 241 244 247 249 252 255 258 262 266 269 270 271 269 266 263 263 266 270 272 274 281 290 298 302 307 313 315 313 314 316 317 318 318 318 319 321 321 319
311 301 296 293 290 286 280 275 271 267 264 263 263 263 262 260 257 256 256 256 255 254 252 250 249 248 246 243 238 235 232 230 230 230 231 231 232 232 232 231 231 232 232 233 234 236 238 240 242 244 246 249 251 254 257 261 263 264 265 263 259 259 263 266 271 277 283 288 294 301 305 309 314 317 316 316 316 317 318 318 319 320 321 320 319
320 303 293 289 288 287 282 278 273 270 266 265 266 268 266 261 259 257 256 256 255 254 254 252 251 249 247 245 242 237 233 230 229 229 230 230 231 232 233 232 232 233 233 234 235 236 237 238 240 243 245 246 247 250 253 255 257 259 259 258 256 257 262 267 273 279 285 290 296 300 304 310 316 320 318 316 316 318 320 322 324 325 325 323 323
330 319 307 295 287 283 280 277 274 272 271 270 270 269 267 263 261 258 256 256 255 254 253 252 251 250 248 246 244 240 236 231 229 228 228 229 230 231 232 233 233 234 234 234 235 236 237 238 239 241 242 243 244 246 249 252 253 255 255 255 254 255 260 266 273 278 283 289 295 299 304 309 314 317 318 318 319 320 322 323 325 326 325 324 324
335 329 321 310 298 288 282 278 275 274 274 275 275 273 269 264 261 258 256 256 255 254 252 250 249 250 249 248 245 243 239 234 231 230 228 228 229 229 231 232 233 234 234 235 235 236 236 236 237 239 240 240 242 245 247 248 250 252 253 254 253 254 258 264 270 276 281 288 294 299 304 308 312 316 320 322 322 323 324 323 323 324 323 322 322
341 335 327 318 308 299 294 288 284 281 278 276 276 275 272 267 263 261 259 257 256 255 253 250 248 248 248 248 247 245 242 238 234 230 228 227 227 228 230 231 232 233 234 234 235 235 235 235 235 236 237 239 242 244 244 245 247 250 251 252 251 253 256 261 266 273 279 286 293 298 303 309 314 317 322 324 322 323 325 324 323 324 325 323 324
346 340 334 327 319 312 306 297 290 285 282 278 275 274 273 271 267 264 262 260 259 257 255 253 250 247 246 245 245 244 243 240 236 231 227 226 226 228 229 230 230 231 232 233 234 234 234 233 233 234 235 238 241 242 242 243 246 247 249 250 250 252 254 259 264 270 277 284 291 297 303 310 316 319 322 323 321 323 326 325 323 325 326 326 327
348 346 341 336 330 323 314 303 295 290 285 280 276 273 272 271 268 265 263 262 261 258 255 253 251 249 246 244 242 241 241 241 239 234 229 226 225 226 227 228 229 230 230 231 232 232 232 232 232 232 234 236 239 239 240 242 244 246 247 248 249 250 253 257 263 270 277 282 287 295 304 312 317 318 319 321 322 324 327 325 323 324 325 325 326
346 347 346 343 338 331 321 311 302 296 289 284 280 277 274 271 268 265 263 262 261 258 255 252 250 249 247 245 243 241 239 239 239 236 233 229 227 226 225 226 227 228 229 229 229 230 230 230 230 231 233 235 236 236 237 240 242 244 244 244 246 249 252 257 263 270 275 280 287 298 307 314 317 317 318 321 323 324 326 325 325 326 326 325 324
342 343 345 345 343 338 331 321 309 301 295 291 286 281 277 272 268 265 262 261 260 257 254 252 250 249 248 246 244 243 242 240 237 235 233 230 228 227 226 227 226 227 228 228 229 229 228 228 228 229 231 232 233 234 236 239 241 242 242 242 245 248 251 258 264 269 274 281 290 302 310 313 314 316 317 319 322 324 326 327 327 329 329 327 325
339 339 340 343 344 344 341 334 323 312 305 298 292 286 280 274 269 265 262 260 259 256 254 252 250 248 247 246 245 244 244 242 240 237 234 230 228 227 228 229 228 228 228 228 228 228 227 227 227 228 230 231 232 233 236 238 239 239 240 241 244 247 252 258 263 267 275 285 295 304 310 311 311 313 316 318 321 324 325 326 328 329 328 325 322
338 336 336 337 339 342 345 344 340 331 320 309 299 291 283 276 270 267 264 262 259 256 253 251 248 247 246 245 245 244 244 244 242 240 237 233 229 228 228 229 230 230 230 230 229 228 227 226 226 228 229 230 231 232 234 236 237 236 237 240 243 247 252 257 261 268 280 290 297 303 308 307 306 308 313 318 321 324 325 326 327 325 321 318 317
334 333 333 333 334 336 339 342 345 344 338 327 312 300 291 282 276 271 266 262 258 255 252 249 247 246 245 245 244 245 245 245 244 241 237 234 231 229 229 230 230 231 232 232 230 229 227 227 227 229 230 230 230 231 233 235 235 234 236 239 243 246 251 258 266 276 286 292 296 301 303 300 299 304 313 320 322 324 324 321 320 318 315 314 315
332 330 329 329 331 332 333 335 338 342 344 341 330 314 302 292 283 275 269 264 260 256 253 250 248 247 245 245 245 246 247 246 244 241 238 235 233 231 230 230 231 231 232 232 231 229 228 228 229 230 230 230 231 232 233 234 233 234 235 238 242 246 251 261 270 278 283 286 290 293 291 289 295 306 316 321 321 321 317 312 313 315 313 312 314
330 329 327 326 327 329 330 330 332 335 339 342 340 330 314 301 291 281 273 267 262 257 253 251 249 247 246 245 245 246 246 245 243 240 237 235 233 231 230 230 231 231 231 231 230 228 228 228 229 229 230 231 231 231 232 232 232 232 234 237 241 245 251 260 267 272 276 280 283 284 286 293 302 308 311 312 313 312 309 308 314 316 312 312 315
327 326 325 323 323 325 326 327 327 329 332 336 339 337 327 311 297 286 276 269 263 258 254 252 249 247 246 245 244 244 244 243 241 239 236 234 233 232 231 230 231 231 231 230 229 227 226 227 227 228 229 230 230 230 229 229 229 230 232 235 238 243 250 257 262 266 272 278 281 283 288 295 297 298 301 302 304 305 305 310 316 315 312 313 316
324 324 322 321 320 320 322 322 323 324 327 329 333 336 333 322 306 291 281 273 266 261 257 253 250 248 246 245 244 243 243 242 239 237 235 232 232 233 232 231 231 230 230 229 227 225 225 224 224 226 227 228 229 229 228 228 229 229 231 233 237 243 248 253 259 266 272 277 278 279 282 285 287 293 296 295 298 303 305 311 314 312 312 313 314
322 321 320 319 318 317 318 318 318 319 321 323 326 330 331 328 316 298 285 276 269 263 258 253 251 248 246 244 243 242 242 241 238 236 233 231 232 233 232 230 230 229 228 227 225 223 222 222 222 224 225 225 226 228 228 228 229 230 232 234 237 243 248 253 259 267 270 271 272 272 275 279 282 287 288 290 297 302 305 308 309 309 311 311 311
319 319 317 316 315 315 315 314 314 315 315 317 320 323 326 327 322 308 292 281 271 264 259 254 251 249 246 244 242 241 241 239 237 234 232 230 232 233 232 229 228 228 228 226 223 221 220 220 221 222 222 223 224 225 227 228 228 229 232 236 240 244 248 252 257 263 265 263 263 265 268 274 278 282 286 291 298 302 304 306 308 308 309 308 308
316 316 315 313 313 313 313 312 311 311 311 311 313 316 319 321 320 314 301 286 274 267 262 257 253 250 248 245 243 242 240 238 235 233 231 229 230 233 232 229 229 229 229 227 224 221 219 220 221 222 222 223 223 223 225 227 228 229 231 235 241 243 243 247 253 258 260 257 256 260 266 273 279 282 287 293 298 303 305 306 306 307 306 305 307
314 313 312 311 311 311 311 310 309 307 307 307 307 309 312 314 315 313 305 292 280 271 266 260 256 252 249 246 244 242 240 238 234 232 229 227 229 232 232 230 231 232 230 227 224 221 221 222 223 223 222 222 222 222 223 225 227 229 230 232 235 237 238 245 250 251 251 250 251 257 264 270 276 279 285 292 298 303 304 304 305 305 304 305 305
312 311 311 310 310 309 308 307 306 304 304 303 302 302 303 306 308 308 304 296 285 275 268 263 258 254 251 247 245 242 240 238 234 231 228 224 226 231 232 231 231 232 230 229 226 224 223 223 223 223 222 220 220 220 221 222 224 228 230 228 228 233 240 248 248 243 243 245 249 255 261 268 274 279 286 293 298 302 302 303 304 304 304 305 303
308 308 308 309 309 308 306 304 302 301 300 299 297 296 295 297 300 301 300 296 288 279 272 265 259 256 253 249 246 243 241 239 235 231 227 222 222 229 231 230 231 230 229 229 229 227 225 223 222 223 221 219 219 219 219 219 220 223 225 222 223 232 242 246 242 239 240 244 249 255 261 268 275 282 289 295 299 301 302 302 304 305 305 304 303
306 305 305 306 306 307 305 303 300 298 296 295 292 290 289 289 290 292 293 292 288 282 274 267 262 258 255 252 249 245 242 239 235 230 226 220 218 226 231 229 228 228 227 227 228 227 224 223 222 220 219 219 217 215 215 215 216 216 217 219 224 232 237 235 232 235 239 242 247 254 260 268 276 284 290 295 297 301 304 303 303 305 306 305 303
303 302 302 302 303 303 303 302 299 296 293 291 289 286 283 282 281 282 283 284 284 281 275 269 264 260 257 254 252 248 244 240 235 230 226 220 215 221 229 229 227 227 227 227 227 225 223 222 222 219 216 214 211 211 212 211 210 212 215 221 227 228 226 226 229 233 237 240 246 253 260 269 277 284 289 293 298 303 305 304 305 307 310 309 307
300 299 299 299 299 299 299 298 297 295 292 288 286 284 279 276 274 273 273 274 276 276 274 270 265 261 258 255 253 249 246 243 238 231 226 219 212 215 224 226 222 222 223 222 222 222 220 220 220 217 212 208 209 212 212 207 207 213 217 220 221 218 218 223 226 229 233 238 245 254 263 271 277 284 288 292 298 303 304 306 308 312 315 314 312
296 295 295 295 296 295 295 294 293 293 290 287 283 281 278 274 270 269 269 269 270 272 272 270 269 266 262 257 254 251 248 245 241 235 230 222 212 210 217 219 216 217 219 218 217 218 218 218 215 209 205 206 208 210 209 206 210 215 215 212 211 212 215 219 222 225 231 237 245 255 265 272 278 285 289 292 298 303 306 309 312 315 317 316 313
294 293 292 292 292 292 292 291 290 289 288 285 281 278 276 273 270 268 266 266 266 267 269 270 271 270 266 260 257 254 252 252 249 242 236 228 217 211 213 216 216 217 218 217 215 213 212 211 206 202 202 205 207 208 207 207 209 210 208 206 208 210 213 217 220 224 230 237 247 257 265 273 280 285 289 293 299 306 310 313 316 318 317 315 314
294 293 292 290 289 289 290 289 288 286 284 282 280 277 274 272 269 266 264 263 262 263 264 266 268 267 264 262 260 257 257 260 258 250 240 231 220 212 212 216 217 217 216 216 214 211 208 205 204 205 207 209 210 210 209 207 206 206 205 204 206 209 212 215 218 223 230 240 251 260 267 276 283 287 292 297 302 308 314 318 319 318 316 314 314
294 292 291 290 288 288 288 287 286 284 282 280 279 277 274 272 269 265 262 260 260 260 261 262 263 262 261 260 259 258 256 256 256 253 245 233 220 212 211 216 218 217 215 214 212 210 210 209 209 210 212 212 212 211 208 205 205 205 204 204 205 208 211 214 218 224 234 244 254 263 272 279 285 289 295 300 305 311 318 321 320 317 315 315 317
292 290 289 288 288 288 287 286 286 283 281 280 279 276 274 272 270 267 263 259 257 258 259 259 258 258 258 256 254 254 253 251 249 248 245 236 223 212 209 215 218 216 214 215 213 212 213 212 211 210 211 212 210 208 205 204 204 204 204 205 206 207 209 213 219 227 236 245 254 264 272 279 285 292 297 304 310 315 320 322 320 318 317 318 319
292 290 288 288 288 287 287 286 285 282 280 280 279 276 272 270 269 269 267 264 259 257 257 259 258 255 254 254 253 251 250 250 248 246 242 236 226 213 207 213 217 216 213 214 214 213 212 212 211 212 212 210 207 205 203 203 203 203 204 206 207 206 208 214 221 229 238 247 255 264 271 279 287 293 299 306 312 317 320 321 320 319 320 321 322
293 291 290 289 289 288 286 283 282 280 281 281 280 276 272 268 267 268 268 266 262 257 255 255 255 252 249 249 250 250 249 247 246 244 239 235 227 214 206 208 214 216 217 217 215 213 213 212 212 213 212 208 204 203 202 200 201 202 201 202 203 205 208 215 223 231 240 249 257 265 273 281 288 295 302 309 315 318 319 320 320 321 323 325 326
293 291 291 290 288 282 276 271 271 274 278 278 276 274 272 269 266 265 265 264 261 258 256 254 252 250 247 243 242 244 246 245 243 240 236 234 226 211 203 204 205 207 212 216 215 215 216 216 214 212 209 206 203 202 201 199 199 199 198 199 201 204 210 217 225 233 241 250 259 268 275 283 291 298 306 312 316 317 318 319 320 323 326 329 329
292 290 288 286 282 277 274 274 276 277 278 277 273 269 268 267 266 264 263 262 259 258 256 255 253 251 248 242 238 236 236 237 237 235 232 230 219 204 201 204 202 200 204 209 211 214 217 218 217 212 207 204 202 200 199 199 197 196 196 198 201 206 212 219 226 233 242 250 259 268 276 285 295 303 309 312 314 316 318 319 321 324 329 331 329
291 289 287 287 285 284 283 283 281 279 279 280 276 269 263 262 263 263 261 259 257 255 253 251 250 247 243 238 232 227 224 226 228 227 225 222 212 202 202 203 202 201 203 206 209 212 216 216 215 211 204 201 199 197 196 196 195 194 195 196 201 206 212 219 227 234 242 250 259 270 280 291 301 307 310 311 313 317 319 320 322 326 330 330 327
291 289 286 285 284 282 281 280 279 276 274 272 270 268 265 261 258 259 259 257 254 253 251 247 243 242 240 236 228 220 215 214 214 213 212 210 205 201 203 204 203 203 206 208 209 212 214 214 212 208 203 201 198 195 194 194 192 193 195 196 200 206 211 218 227 235 242 250 261 274 286 297 305 307 308 310 313 317 320 322 326 328 329 328 325
291 287 283 281 281 279 278 278 278 277 274 268 261 260 262 261 257 256 256 254 252 250 247 244 240 239 239 236 227 216 209 206 204 203 205 205 202 201 203 204 204 206 209 209 209 211 212 211 208 205 202 200 196 194 194 193 192 193 196 198 202 207 212 219 227 235 244 255 267 278 290 300 304 306 308 311 314 318 322 325 328 328 327 325 324
288 287 285 284 282 280 279 277 275 272 271 272 267 260 256 257 257 256 254 252 251 247 243 241 239 237 236 232 224 216 209 206 205 204 204 203 202 202 203 204 205 207 208 208 209 211 212 209 206 203 200 197 195 194 193 192 192 195 198 200 204 210 215 221 229 238 248 260 271 282 292 300 303 306 309 312 316 320 324 326 328 327 324 324 324
291 290 290 289 287 285 281 278 276 272 268 268 269 264 257 254 255 256 255 252 250 247 242 240 238 237 234 231 226 220 214 210 207 206 204 203 202 202 204 205 206 206 207 208 212 214 212 208 204 200 195 193 193 192 191 191 194 198 201 203 206 212 217 224 233 243 252 263 275 286 295 301 304 307 311 314 318 321 324 326 327 326 323 323 324
297 296 295 294 293 290 284 278 276 276 271 265 263 262 258 254 253 253 253 251 248 245 242 239 237 235 232 229 224 219 216 213 209 206 204 203 202 202 204 206 206 206 208 213 216 216 212 205 200 196 192 191 191 190 190 192 196 199 202 205 209 215 221 229 239 248 257 269 282 291 297 302 305 308 311 315 319 322 324 326 326 325 323 324 325
302 300 300 298 295 293 290 283 276 274 272 268 262 257 255 254 253 251 250 249 247 243 239 236 232 229 227 223 216 211 212 212 209 206 204 204 203 203 205 205 205 205 210 215 217 215 210 202 196 192 190 189 189 189 190 194 198 202 206 209 213 220 227 236 246 256 266 277 287 294 298 303 307 310 312 315 319 322 325 326 326 325 324 324 326
305 302 301 299 295 292 289 284 278 273 271 271 266 257 251 251 252 250 247 246 244 240 236 232 228 224 221 213 205 204 207 208 207 207 206 204 203 204 204 204 203 205 211 214 213 210 204 196 191 188 186 186 186 189 193 197 201 206 209 214 220 228 235 244 255 265 275 284 290 295 300 305 308 310 312 316 320 322 324 326 326 325 324 325 327
311 308 307 304 299 295 290 285 282 278 273 269 265 258 251 248 248 248 245 243 241 236 232 229 225 220 214 205 199 201 205 206 206 207 206 205 204 203 203 203 205 208 210 209 204 199 194 189 186 185 183 183 186 190 196 200 203 208 214 221 229 237 245 255 264 273 282 289 293 297 302 305 308 310 312 315 319 323 325 326 325 323 324 325 327
319 316 314 309 305 301 298 293 290 285 277 269 263 257 251 248 247 245 242 240 236 231 226 222 217 213 208 203 200 202 205 206 206 207 207 205 204 202 202 203 204 204 201 197 191 187 184 183 182 182 183 185 189 194 198 202 207 213 219 228 237 246 255 265 272 280 287 291 294 299 302 304 307 308 308 314 322 326 326 323 321 321 323 326 327
327 324 320 316 313 310 307 304 299 291 280 269 260 254 250 247 244 240 236 233 228 222 218 213 208 205 202 200 199 201 203 204 206 206 205 203 201 199 199 198 196 191 187 183 181 179 177 176 177 180 184 189 193 196 200 204 210 217 226 234 243 254 265 272 278 285 289 291 295 300 303 304 304 303 306 317 326 326 320 318 317 319 323 327 328
336 334 331 328 326 322 318 315 307 293 278 265 255 250 247 242 235 229 224 220 216 212 209 205 200 198 197 197 198 200 202 204 205 204 201 197 193 190 189 188 185 182 179 177 174 173 173 174 176 180 185 190 194 197 201 207 213 221 231 242 253 263 272 279 284 288 290 292 297 301 302 301 300 302 312 324 326 319 315 315 316 319 324 327 328
344 342 340 339 336 332 328 323 312 297 280 266 253 243 235 229 223 217 213 210 206 204 202 200 198 196 197 197 199 201 203 203 201 196 190 184 181 179 179 180 180 179 177 173 171 171 172 173 176 181 185 189 193 197 202 209 217 227 241 255 265 273 280 285 289 291 292 295 299 301 299 298 301 309 320 324 318 313 313 315 316 320 326 328 327
354 352 351 350 349 346 343 337 326 311 287 264 246 229 216 211 207 204 203 202 199 197 197 197 196 196 196 198 199 199 197 194 189 182 177 174 174 176 178 179 178 174 171 169 169 170 172 174 178 182 185 189 194 198 204 214 225 239 254 265 273 280 286 291 293 295 297 299 299 298 297 300 307 316 322 319 312 311 312 313 316 322 327 327 326
6 4 2 2 3 4 2 359 355 346 319 262 226 208 198 194 191 190 193 194 194 192 193 193 193 193 193 194 192 188 183 178 174 172 172 174 177 178 178 176 171 168 167 167 169 171 173 176 179 182 186 191 197 202 211 223 234 248 261 271 279 286 292 294 297 299 299 297 296 297 299 302 309 317 319 313 309 310 311 312 317 324 328 326 325